Regional Weather Roundup
Issued by NWS

Home | Current Version | Previous Version | Text Only | Print | Product List | Glossary On
Versions: 1 2 3 4 5 6 7 8 9 10 11 12 13 14 15 16 17 18 19 20 21 22 23 24 25 26 27 28 29 30 31 32 33 34 35 36 37 38 39 40 41 42 43 44 45 46 47 48 49 50
000
ASUS44 KOUN 231500
RWROK

WEATHER ROUNDUP FOR OKLAHOMA
NATIONAL WEATHER SERVICE NORMAN OK
1000 AM CDT TUE SEP 23 2014

NOTE: "FAIR" INDICATES FEW OR NO CLOUDS BELOW 12,000 FEET WITH NO
      SIGNIFICANT WEATHER AND/OR OBSTRUCTIONS TO VISIBILITY.

OKZ001>007-009>012-014-015-017-231600-
NORTHWEST OKLAHOMA AND THE PANHANDLE

CITY           SKY/WX    TMP DP  RH WIND       PRES   REMARKS
GAGE           MOSUNNY   70  51  51 S21G30    30.15S
$$

OKZ016-021>023-033>039-044-045-231600-
SOUTHWEST OKLAHOMA

CITY           SKY/WX    TMP DP  RH WIND       PRES   REMARKS
LAWTON/REGL    SUNNY     69  53  56 SE8       30.22R
LAWTON/FT SILL SUNNY     70  53  54 S13       30.21R
FREDERICK      MOSUNNY   71  53  52 S15       30.19R
CLINTON        SUNNY     70  50  49 S20       30.21F
HOBART         PTSUNNY   69  51  52 S17       30.21S
$$

OKZ018>020-024>031-231600-
CENTRAL OKLAHOMA

CITY           SKY/WX    TMP DP  RH WIND       PRES   REMARKS
OKLAHOMA CITY  MOSUNNY   67  53  61 S10       30.22S
OKC/WILEY POST SUNNY     69  54  58 S14       30.21S
OKC/TINKER AFB SUNNY     66  54  64 S15       30.22S
STILLWATER     MOSUNNY   67  54  63 S13       30.22S
GUTHRIE        SUNNY     69  54  58 S14       30.21S
$$

OKZ008-013-054>072-231600-
NORTHEAST OKLAHOMA

CITY           SKY/WX    TMP DP  RH WIND       PRES   REMARKS
TULSA          PTSUNNY   68  55  63 S10       30.25R
TULSA/JONES    MOSUNNY   67  57  70 S8        30.25R
PONCA CITY     MOSUNNY   67  53  61 S12G18    30.21F
BARTLESVILLE   PTSUNNY   62  58  86 SE7       30.26R
MUSKOGEE       SUNNY     66  57  72 SE8       30.27R
$$

OKZ032-040>043-046>053-073>077-231600-
SOUTH CENTRAL/SOUTHEAST OKLAHOMA

CITY           SKY/WX    TMP DP  RH WIND       PRES   REMARKS
MCALESTER      SUNNY     67  53  61 SE6       30.25R
$$




USA.gov is the U.S. government's official web portal to all federal, state and local government web resources and services.